Station 46100 - OOI Westport Offshore Image indicating link to RSS feed of recent meteorological observations for station 46100


Conditions at 46100 as of
(4:40 pm PDT)
2340 GMT on 07/17/2024:
Note: This report is more than two hours old
     

Click on the graph icon in the table below to see a time series plot of the last five days of that observation.

5-day plot - Wind Direction Wind Direction (WDIR):SSW ( 200 deg true )
5-day plot - Wind Speed Wind Speed (WSPD): 11.7 kts
5-day plot - Atmospheric Pressure Atmospheric Pressure (PRES):30.03 in
5-day plot - Air Temperature Air Temperature (ATMP): 57.9 °F
5-day plot - Water Temperature Water Temperature (WTMP): 57.2 °F
5-day plot - Salinity Salinity (SAL): 32.02 psu
5-day plot - Wind Speed at 10 Meters Wind Speed at 10 meters (WSPD10M): 11.7 kts
5-day plot - Wind Speed at 20 Meters Wind Speed at 20 meters (WSPD20M): 13.6 kts
5-day plot -  Wind Speed, Wind Gust and Atmospheric Pressure Combined plot of Wind Speed, Gust, and Air Pressure
Previous observations
TIME
(PDT)
5-day plot - Wind Direction
WDIR
 
5-day plot - Wind Speed
WSPD
kts
5-day plot - Wind Gust
GST
kts
5-day plot - Wave Height
WVHT
ft
5-day plot - Dominant Wave Period
DPD
sec
5-day plot - Average Wave Period
APD
sec
5-day plot - Mean Wave Direction
MWD
 
5-day plot - Atmospheric Pressure
PRES
in
5-day plot - Pressure Tendency
PTDY
in
5-day plot - Air Temperature
ATMP
°F
5-day plot - Water Temperature
WTMP
°F
5-day plot - Dew Point
DEWP
°F
5-day plot - Salinity
SAL
psu
5-day plot - Visibility
VIS
nmi
5-day plot - Tide (above MLLW)
TIDE
ft
2024-07-17 04:30 pm S 11.7-----30.03- 57.9 57.2- 32.01--
2024-07-17 04:20 pm S 11.7- 4.3--SSW30.03- 57.7 57.6- 31.99--
2024-07-17 04:10 pm S 11.7- 4.3 18--30.03- 57.7 57.4- 32.00--
2024-07-17 04:00 pm S 11.7-----30.03+0.01 57.6 57.2- 31.99--
2024-07-17 03:50 pm S 11.7-----30.03- 57.6 57.0- 32.00--
2024-07-17 03:40 pm S 11.7-----30.03- 57.4 57.2- 32.00--
2024-07-17 03:30 pm S 11.7-----30.03- 57.4 57.2- 32.01--
2024-07-17 03:20 pm S 11.7- 3.9-- SW30.03- 57.4 57.0- 32.03--
2024-07-17 03:10 pm S 11.7- 3.9 18--30.03- 57.4 57.2- 32.04--
2024-07-17 03:00 pm S 11.7-----30.03- 57.4 57.2- 32.05--
2024-07-17 02:50 pm S 11.7-----30.03- 57.4 57.0- 32.06--
2024-07-17 02:40 pm S 9.7-----30.03- 57.2 56.8- 32.06--
2024-07-17 01:30 pmSSE 11.7-----30.03- 57.4 56.8- 32.06--
2024-07-17 01:20 pmSSE 11.7- 4.3--WSW30.03- 57.2 56.8- 32.06--
2024-07-17 01:10 pm S 7.8- 4.3 18--30.03- 57.2 56.8- 32.06--
2024-07-17 01:00 pmSSE 7.8-----30.02+0.03 57.0 56.8- 32.06--
2024-07-17 12:50 pmSSE 7.8-----30.02- 57.2 57.0- 32.06--
2024-07-17 12:40 pmSSE 5.8-----30.02- 57.2 56.8- 32.06--
2024-07-17 10:30 am SE 3.9-----30.00- 57.2 56.8- 32.08--
2024-07-17 10:20 amSSE 3.9- 3.9--WSW30.00- 57.4 56.8- 32.08--
2024-07-17 10:10 am S 3.9- 3.9 17--29.99- 57.0 56.7- 32.08--
2024-07-17 10:00 am S 5.8-----29.99+0.03 56.8 56.7- 32.08--
2024-07-17 09:50 am S 5.8-----30.00- 56.7 56.7- 32.08--
2024-07-17 09:40 am S 5.8-----30.00- 56.5 56.5- 32.08--
2024-07-17 09:30 am S 5.8-----29.99- 56.3 56.5- 32.08--
2024-07-17 09:20 am S 5.8- 3.9--WSW30.00- 56.3 56.5- 32.08--
2024-07-17 09:10 amSSE 5.8- 3.9 17--30.00- 55.9 56.5- 32.09--
2024-07-17 09:00 amSSE 5.8-----29.99+0.03 55.9 56.5- 32.08--
2024-07-17 08:50 amSSE 5.8-----29.99- 55.9 56.5- 32.08--
2024-07-17 08:40 amSSE 7.8-----29.99- 55.9 56.5- 32.09--
2024-07-17 08:30 amSSE 7.8-----29.99- 55.9 56.5- 32.09--
2024-07-17 08:20 am SE 3.9- 3.9-- W29.98- 56.1 56.5- 32.09--
2024-07-17 08:10 am SE 1.9- 3.9 9--29.97- 56.1 56.5- 32.09--
2024-07-17 08:00 am W 1.9-----29.96-0.01 56.1 56.5- 32.09--
2024-07-17 07:50 am W 3.9-----29.95- 55.9 56.5- 32.09--
2024-07-17 07:40 am W 3.9-----29.95- 55.9 56.5- 32.09--
2024-07-17 07:30 amWSW 5.8-----29.95- 55.9 56.5- 32.10--
2024-07-17 07:20 am SW 3.9- 3.6--WSW29.96- 55.9 56.5- 32.10--
2024-07-17 07:10 am S 3.9- 3.6 18--29.96- 55.9 56.5- 32.10--
2024-07-17 07:00 am S 3.9-----29.96+0.03 55.9 56.5- 32.09--
2024-07-17 06:50 am S 3.9-----29.96- 55.8 56.5- 32.09--
2024-07-17 06:40 amSSE 5.8-----29.96- 55.8 56.5- 32.08--
2024-07-17 06:30 amSSE 5.8-----29.96- 55.8 56.5- 32.08--
2024-07-17 06:20 am S 3.9- 3.6-- W29.96- 55.8 56.5- 32.08--
2024-07-17 06:10 am S 3.9- 3.6 17--29.96- 55.8 56.7- 32.08--
2024-07-17 06:00 amSSE 7.8-----29.97+0.03 55.8 56.7- 32.07--
2024-07-17 05:50 amSSE 9.7-----29.97- 55.8 56.7- 32.07--
2024-07-17 05:40 amSSE 9.7-----29.97- 55.8 56.7- 32.06--
2024-07-17 05:30 am SE 9.7-----29.96- 55.9 56.7- 32.06--
2024-07-17 05:20 amESE 5.8- 3.6--WNW29.96- 56.5 56.7- 32.07--
2024-07-17 05:10 amESE 5.8- 3.6 9--29.96- 56.5 56.7- 32.08--
2024-07-17 05:00 amESE 5.8-----29.97+0.01 56.5 56.7- 32.08--
2024-07-17 04:50 amENE 3.9-----29.96- 56.5 56.7- 32.08--
2024-07-17 04:40 amENE 5.8-----29.96- 56.5 56.5- 32.09--
2024-07-17 04:30 am E 5.8-----29.96- 56.7 56.3- 32.09--
2024-07-17 04:20 am E 3.9- 3.6-- W29.96- 56.7 56.5- 32.10--
2024-07-17 04:10 am N 5.8- 3.6 18--29.95- 56.7 56.5- 32.09--
2024-07-17 04:00 amNNW 7.8-----29.93-0.03 56.7 56.7- 32.08--
2024-07-17 03:50 amNNW 9.7-----29.93- 56.8 56.8- 32.09--
2024-07-17 03:40 amNNW 9.7-----29.94- 56.8 57.0- 32.10--
2024-07-17 03:30 am NW 7.8-----29.94- 57.0 56.8- 32.10--
2024-07-17 03:20 am NW 7.8- 3.6--WNW29.94- 56.8 56.8- 32.10--
2024-07-17 03:10 amWNW 7.8- 3.6 10--29.94- 56.8 56.8- 32.10--
2024-07-17 03:00 amWNW 7.8-----29.94+0.00 56.7 56.8- 32.10--
2024-07-17 02:50 am W 9.7-----29.93- 56.5 56.8- 32.10--
2024-07-17 02:40 am W 7.8-----29.95- 56.5 56.8- 32.11--
2024-07-17 02:30 am W 7.8-----29.95- 56.5 56.8- 32.11--
2024-07-17 02:20 amWSW 7.8- 3.9--WNW29.95- 56.3 56.8- 32.11--
2024-07-17 02:10 amWSW 9.7- 3.9 17--29.96- 56.1 56.8- 32.11--
2024-07-17 02:00 am SW 9.7-----29.96+0.06 56.1 56.8- 32.11--
2024-07-17 01:50 am SW 9.7-----29.96- 55.9 57.0- 32.11--
2024-07-17 01:40 am SW 9.7-----29.96- 55.9 57.0- 32.11--
2024-07-17 01:30 am SW 11.7-----29.96- 55.8 57.0- 32.10--
2024-07-17 01:20 amSSW 9.7- 3.9--WNW29.97- 55.8 57.0- 32.10--
2024-07-17 01:10 amSSW 9.7- 3.9 17--29.96- 55.6 57.0- 32.10--
2024-07-17 01:00 am S 11.7-----29.97+0.05 55.6 56.8- 32.10--
2024-07-17 12:50 am S 9.7-----29.97- 55.4 56.8- 32.09--
2024-07-17 12:40 am S 9.7-----29.96- 55.4 56.7- 32.09--
2024-07-17 12:30 am S 7.8-----29.96- 55.2 56.7- 32.09--
2024-07-17 12:20 am S 5.8- 3.9--WNW29.95- 55.2 56.7- 32.08--
2024-07-17 12:10 am S 3.9- 3.9 17--29.94- 55.2 56.5- 32.08--
2024-07-17 12:00 am SE 1.9-----29.94+0.04 55.2 56.5- 32.08--
2024-07-16 11:50 pm NW 1.9-----29.94- 55.2 56.5- 32.08--
2024-07-16 11:40 pmWNW 3.9-----29.94- 55.2 56.5- 32.08--
2024-07-16 11:30 pm NW 7.8-----29.92- 55.2 56.5- 32.08--
2024-07-16 11:20 pmNNW 11.7- 4.3--WNW29.90- 55.2 56.5- 32.08--
2024-07-16 11:10 pmNNW 11.7- 4.3 17--29.90- 55.2 56.5- 32.08--
2024-07-16 11:00 pmNNW 11.7-----29.90+0.01 55.4 56.5- 32.07--
2024-07-16 10:50 pmNNW 13.6-----29.90- 55.4 56.7- 32.07--
2024-07-16 10:40 pmNNW 11.7-----29.91- 55.4 56.7- 32.08--
2024-07-16 10:30 pmNNW 13.6-----29.91- 55.2 56.7- 32.08--
2024-07-16 10:20 pm NW 11.7- 4.3--WNW29.91- 55.2 56.5- 32.08--
2024-07-16 10:10 pm NW 11.7- 4.3 17--29.91- 55.2 56.5- 32.08--
2024-07-16 10:00 pm NW 9.7-----29.91+0.01 55.0 56.5- 32.08--
2024-07-16 09:50 pmNNW 9.7-----29.91- 55.0 56.5- 32.08--
2024-07-16 09:40 pmNNW 9.7-----29.91- 55.0 56.3- 32.08--
2024-07-16 09:30 pmNNW 9.7-----29.90- 55.0 56.3- 32.09--
2024-07-16 09:20 pmNNW 9.7- 3.9--WNW29.90- 55.2 56.3- 32.09--
2024-07-16 09:10 pmNNW 9.7- 3.9 18--29.91- 55.2 56.5- 32.08--
2024-07-16 09:00 pmNNW 9.7-----29.91- 55.0 56.3- 32.07--
2024-07-16 08:50 pmNNW 9.7-----29.89- 55.2 56.3- 32.07--
2024-07-16 08:40 pm N 13.6-----29.89- 55.0 56.5- 32.06--
2024-07-16 08:30 pm N 13.6-----29.88- 55.2 56.5- 32.06--
2024-07-16 08:20 pmNNW 13.6- 3.6-- NW29.88- 55.2 56.7- 32.07--
2024-07-16 08:10 pmNNW 15.5- 3.6 17--29.89- 55.2 56.8- 32.07--
2024-07-16 08:00 pm N 13.6-----29.89-0.06 55.4 56.8- 32.07--
2024-07-16 07:50 pmNNW 13.6-----29.89- 55.6 56.5- 32.03--
2024-07-16 07:40 pmNNW 15.5-----29.89- 55.4 56.5- 32.01--
2024-07-16 07:30 pmNNW 13.6-----29.89- 55.6 56.5- 32.01--
2024-07-16 07:20 pmNNW 15.5- 3.6-- NW29.89- 55.6 56.7- 32.01--
2024-07-16 07:10 pmNNW 13.6- 3.6 8--29.89- 55.8 56.7- 32.01--
2024-07-16 07:00 pmNNW 13.6-----29.90- 55.6 56.7- 32.01--
2024-07-16 06:50 pmNNW 13.6-----29.90- 55.8 56.7- 32.01--

Detailed Wave Summary
for 46100 as of (4:10 pm PDT)
2310 GMT on 07/17/2024:

Note: This report is more than two hours old

These wave data are displayed in rounded times.

     

Click on the graph icon in the table below to see a time series plot of the last five days of that observation.

5-day plot - Significant Wave Height Significant Wave Height (WVHT): 4.3 ft
Previous observations
TIME
(PDT)
5-day plot - Wave Height
WVHT
ft
5-day plot - Swell Height
SwH
ft
5-day plot - Swell Period
SwP
sec
5-day plot - Swell Direction
SwD
 
5-day plot - Wind Wave Height
WWH
ft
5-day plot - Wind Wave Period
WWP
sec
5-day plot - Wind Wave Direction
WWD
 
5-day plot - Wave Steepness
STEEPNESS
 
5-day plot - Average Wave Period
APD
sec
2024-07-17 03:10 pm 3.9------ N/A-
2024-07-17 01:10 pm 4.3------ N/A-
2024-07-17 10:10 am 3.9------ N/A-
2024-07-17 09:10 am 3.9------ N/A-
2024-07-17 08:10 am 3.9------ N/A-
2024-07-17 07:10 am 3.6------ N/A-
2024-07-17 06:10 am 3.6------ N/A-
2024-07-17 05:10 am 3.6------ N/A-
2024-07-17 04:10 am 3.6------ N/A-
2024-07-17 03:10 am 3.6------ N/A-
2024-07-17 02:10 am 3.9------ N/A-
2024-07-17 01:10 am 3.9------ N/A-
2024-07-17 12:10 am 3.9------ N/A-
2024-07-16 11:10 pm 4.3------ N/A-
2024-07-16 10:10 pm 4.3------ N/A-
2024-07-16 09:10 pm 3.9------ N/A-
2024-07-16 08:10 pm 3.6------ N/A-
2024-07-16 07:10 pm 3.6------ AVERAGE-

Ocean Conditions at 46100 as of
(4:40 pm PDT)
2340 GMT on 07/17/2024:
Note: This report is more than two hours old

These oceanographic data are displayed in rounded times.

     

Click on the graph icon in the table below to see a time series plot of the last five days of that observation.

Depth (DEPTH): 3.6 ft
5-day plot - Ocean Temperature Ocean Temperature (OTMP):57.20 °F
5-day plot - Salinity Salinity (SAL):32.02 psu
Previous observations
TIME
(PDT)
DEPTH
ft
5-day plot - Ocean Temperature
OTMP
°F
5-day plot - Conductivity
COND
mS/cm
5-day plot - Salinity
SAL
psu
5-day plot - Oxygen Concentration
O2%
%
5-day plot - Oxygen Concentration
O2PPM
ppm
5-day plot - Chlorophyll
CLCON
ug/l
5-day plot - Turbidity
TURB
FTU
5-day plot - pH
PH
 
5-day plot - Eh
EH
mv
2024-07-17 04:30 pm 3.657.27-32.01------
2024-07-17 04:20 pm 3.657.52-31.99------
2024-07-17 04:10 pm 3.657.40-32.00------
2024-07-17 04:00 pm 3.657.24-31.99------
2024-07-17 03:50 pm 3.657.11-32.00------
2024-07-17 03:40 pm 3.657.16-32.00------
2024-07-17 03:30 pm 3.657.25-32.01------
2024-07-17 03:20 pm 3.657.09-32.03------
2024-07-17 03:10 pm 3.657.20-32.04------
2024-07-17 03:00 pm 3.657.20-32.05------
2024-07-17 02:50 pm 3.656.97-32.06------
2024-07-17 02:40 pm 3.656.82-32.06------
2024-07-17 01:30 pm 3.656.80-32.06------
2024-07-17 01:20 pm 3.656.86-32.06------
2024-07-17 01:10 pm 3.656.88-32.06------
2024-07-17 01:00 pm 3.656.89-32.06------
2024-07-17 12:50 pm 3.656.95-32.06------
2024-07-17 12:40 pm 3.656.89-32.06------
2024-07-17 10:30 am 3.656.89-32.08------
2024-07-17 10:20 am 3.656.80-32.08------
2024-07-17 10:10 am 3.656.71-32.08------
2024-07-17 10:00 am 3.656.64-32.08------
2024-07-17 09:50 am 3.656.59-32.08------
2024-07-17 09:40 am 3.656.55-32.08------
2024-07-17 09:30 am 3.656.55-32.08------
2024-07-17 09:20 am 3.656.53-32.08------
2024-07-17 09:10 am 3.656.53-32.09------
2024-07-17 09:00 am 3.656.53-32.08------
2024-07-17 08:50 am 3.656.53-32.08------
2024-07-17 08:40 am 3.656.53-32.09------
2024-07-17 08:30 am 3.656.55-32.09------
2024-07-17 08:20 am 3.656.55-32.09------
2024-07-17 08:10 am 3.656.53-32.09------
2024-07-17 08:00 am 3.656.53-32.09------
2024-07-17 07:50 am 3.656.52-32.09------
2024-07-17 07:40 am 3.656.52-32.09------
2024-07-17 07:30 am 3.656.50-32.10------
2024-07-17 07:20 am 3.656.48-32.10------
2024-07-17 07:10 am 3.656.50-32.10------
2024-07-17 07:00 am 3.656.48-32.09------
2024-07-17 06:50 am 3.656.50-32.09------
2024-07-17 06:40 am 3.656.52-32.08------
2024-07-17 06:30 am 3.656.52-32.08------
2024-07-17 06:20 am 3.656.55-32.08------
2024-07-17 06:10 am 3.656.61-32.08------
2024-07-17 06:00 am 3.656.62-32.07------
2024-07-17 05:50 am 3.656.64-32.07------
2024-07-17 05:40 am 3.656.62-32.06------
2024-07-17 05:30 am 3.656.61-32.06------
2024-07-17 05:20 am 3.656.59-32.07------
2024-07-17 05:10 am 3.656.59-32.08------
2024-07-17 05:00 am 3.656.59-32.08------
2024-07-17 04:50 am 3.656.57-32.08------
2024-07-17 04:40 am 3.656.53-32.09------
2024-07-17 04:30 am 3.656.39-32.09------
2024-07-17 04:20 am 3.656.41-32.10------
2024-07-17 04:10 am 3.656.48-32.09------
2024-07-17 04:00 am 3.656.59-32.08------
2024-07-17 03:50 am 3.656.89-32.09------
2024-07-17 03:40 am 3.656.95-32.10------
2024-07-17 03:30 am 3.656.89-32.10------
2024-07-17 03:20 am 3.656.82-32.10------
2024-07-17 03:10 am 3.656.82-32.10------
2024-07-17 03:00 am 3.656.82-32.10------
2024-07-17 02:50 am 3.656.82-32.10------
2024-07-17 02:40 am 3.656.82-32.11------
2024-07-17 02:30 am 3.656.84-32.11------
2024-07-17 02:20 am 3.656.86-32.11------
2024-07-17 02:10 am 3.656.88-32.11------
2024-07-17 02:00 am 3.656.93-32.11------
2024-07-17 01:50 am 3.656.97-32.11------
2024-07-17 01:40 am 3.656.98-32.11------
2024-07-17 01:30 am 3.656.97-32.10------
2024-07-17 01:20 am 3.656.97-32.10------
2024-07-17 01:10 am 3.656.95-32.10------
2024-07-17 01:00 am 3.656.88-32.10------
2024-07-17 12:50 am 3.656.77-32.09------
2024-07-17 12:40 am 3.656.71-32.09------
2024-07-17 12:30 am 3.656.66-32.09------
2024-07-17 12:20 am 3.656.57-32.08------
2024-07-17 12:10 am 3.656.57-32.08------
2024-07-17 12:00 am 3.656.55-32.08------
2024-07-16 11:50 pm 3.656.53-32.08------
2024-07-16 11:40 pm 3.656.53-32.08------
2024-07-16 11:30 pm 3.656.53-32.08------
2024-07-16 11:20 pm 3.656.52-32.08------
2024-07-16 11:10 pm 3.656.52-32.08------
2024-07-16 11:00 pm 3.656.57-32.07------
2024-07-16 10:50 pm 3.656.57-32.07------
2024-07-16 10:40 pm 3.656.57-32.08------
2024-07-16 10:30 pm 3.656.57-32.08------
2024-07-16 10:20 pm 3.656.55-32.08------
2024-07-16 10:10 pm 3.656.52-32.08------
2024-07-16 10:00 pm 3.656.46-32.08------
2024-07-16 09:50 pm 3.656.41-32.08------
2024-07-16 09:40 pm 3.656.35-32.08------
2024-07-16 09:30 pm 3.656.34-32.09------
2024-07-16 09:20 pm 3.656.34-32.09------
2024-07-16 09:10 pm 3.656.41-32.08------
2024-07-16 09:00 pm 3.656.39-32.07------
2024-07-16 08:50 pm 3.656.37-32.07------
2024-07-16 08:40 pm 3.656.39-32.06------
2024-07-16 08:30 pm 3.656.50-32.06------
2024-07-16 08:20 pm 3.656.66-32.07------
2024-07-16 08:10 pm 3.656.79-32.07------
2024-07-16 08:00 pm 3.656.80-32.07------
2024-07-16 07:50 pm 3.656.53-32.03------
2024-07-16 07:40 pm 3.656.50-32.01------
2024-07-16 07:30 pm 3.656.55-32.01------
2024-07-16 07:20 pm 3.656.61-32.01------
2024-07-16 07:10 pm 3.656.66-32.01------
2024-07-16 07:00 pm 3.656.70-32.01------
2024-07-16 06:50 pm 3.656.66-32.01------

Solar Radiation Conditions at 46100 as of
(4:40 pm PDT)
2340 GMT on 07/17/2024:
Note: This report is more than two hours old
     

Click on the graph icon in the table below to see a time series plot of the last five days of that observation.

5-day plot - Short Wave Radiation 1 Short Wave Radiation 1 (SRAD1): 323.9watts/meter2
5-day plot - Long Wave Radiation Long Wave Radiation (LWRAD): 377.1watts/meter2
Previous observations
TIME
(PDT)
5-day plot - Short Wave Radiation 1
SRAD1
w/m2
5-day plot - Short Wave Radiation 2
SRAD2
w/m2
5-day plot - Long Wave Radiation
LRAD
w/m2
2024-07-17 04:30 pm 283.0- 377.5
2024-07-17 04:20 pm 318.9- 376.9
2024-07-17 04:10 pm 351.1- 377.1
2024-07-17 04:00 pm 376.6- 376.9
2024-07-17 03:50 pm 415.4- 376.9
2024-07-17 03:40 pm 445.2- 376.6
2024-07-17 03:30 pm 449.6- 376.3
2024-07-17 03:20 pm 410.1- 376.4
2024-07-17 03:10 pm 441.0- 376.7
2024-07-17 03:00 pm 391.2- 376.7
2024-07-17 02:50 pm 385.0- 376.9
2024-07-17 02:40 pm 353.5- 376.4
2024-07-17 01:30 pm 415.7- 375.4
2024-07-17 01:20 pm 478.5- 375.3
2024-07-17 01:10 pm 455.9- 375.4
2024-07-17 01:00 pm 363.6- 375.2
2024-07-17 12:50 pm 308.8- 374.6
2024-07-17 12:40 pm 272.7- 374.9
2024-07-17 10:30 am 499.1- 368.9
2024-07-17 10:20 am 462.0- 372.5
2024-07-17 10:10 am 539.4- 366.5
2024-07-17 10:00 am 610.3- 370.1
2024-07-17 09:50 am 471.3- 373.9
2024-07-17 09:40 am 279.7- 373.8
2024-07-17 09:30 am 185.7- 373.8
2024-07-17 09:20 am 258.4- 367.0
2024-07-17 09:10 am 109.0- 372.6
2024-07-17 09:00 am 89.5- 373.0
2024-07-17 08:50 am 107.2- 372.5
2024-07-17 08:40 am 73.8- 372.7
2024-07-17 08:30 am 63.1- 373.2
2024-07-17 08:20 am 65.7- 373.5
2024-07-17 08:10 am 54.6- 373.3
2024-07-17 08:00 am 77.8- 372.8
2024-07-17 07:50 am 107.0- 370.6
2024-07-17 07:40 am 108.8- 369.4
2024-07-17 07:30 am 96.4- 370.7
2024-07-17 07:20 am 64.9- 372.2
2024-07-17 07:10 am 42.6- 372.4
2024-07-17 07:00 am 29.4- 372.4
2024-07-17 06:50 am 23.2- 372.8
2024-07-17 06:40 am 17.6- 372.3
2024-07-17 06:30 am 15.2- 372.8
2024-07-17 06:20 am 15.1- 371.6
2024-07-17 06:10 am 14.7- 370.1
2024-07-17 06:00 am 9.8- 372.8
2024-07-17 05:50 am 7.3- 372.7
2024-07-17 05:40 am 6.6- 372.4
2024-07-17 05:30 am 5.7- 372.5
2024-07-17 05:20 am 5.4- 374.3
2024-07-17 05:10 am 5.1- 373.6
2024-07-17 05:00 am 5.2- 374.0
2024-07-17 04:50 am 5.2- 373.1
2024-07-17 04:40 am 5.1- 374.1
2024-07-17 04:30 am 5.0- 374.6
2024-07-17 04:20 am 5.0- 375.2
2024-07-17 04:10 am 5.0- 374.2
2024-07-17 04:00 am 5.0- 373.9
2024-07-17 03:50 am 5.0- 371.7
2024-07-17 03:40 am 5.0- 370.4
2024-07-17 03:30 am 4.9- 366.9
2024-07-17 03:20 am 4.9- 367.6
2024-07-17 03:10 am 4.9- 371.0
2024-07-17 03:00 am 4.8- 370.0
2024-07-17 02:50 am 4.7- 359.3
2024-07-17 02:40 am 4.9- 367.3
2024-07-17 02:30 am 4.8- 366.8
2024-07-17 02:20 am 4.8- 363.7
2024-07-17 02:10 am 4.8- 355.8
2024-07-17 02:00 am 4.8- 356.8
2024-07-17 01:50 am 4.8- 365.9
2024-07-17 01:40 am 4.8- 365.1
2024-07-17 01:30 am 4.9- 369.9
2024-07-17 01:20 am 4.9- 370.1
2024-07-17 01:10 am 4.9- 371.1
2024-07-17 01:00 am 4.9- 371.4
2024-07-17 12:50 am 5.0- 371.6
2024-07-17 12:40 am 4.9- 370.9
2024-07-17 12:30 am 4.9- 365.6
2024-07-17 12:20 am 4.9- 371.2
2024-07-17 12:10 am 4.8- 371.3
2024-07-17 12:00 am 4.9- 371.1
2024-07-16 11:50 pm 4.8- 369.6
2024-07-16 11:40 pm 4.8- 368.8
2024-07-16 11:30 pm 4.8- 365.6
2024-07-16 11:20 pm 4.8- 360.9
2024-07-16 11:10 pm 4.9- 357.3
2024-07-16 11:00 pm 4.8- 364.6
2024-07-16 10:50 pm 4.9- 363.8
2024-07-16 10:40 pm 4.8- 366.5
2024-07-16 10:30 pm 4.8- 365.5
2024-07-16 10:20 pm 4.8- 362.8
2024-07-16 10:10 pm 4.9- 365.7
2024-07-16 10:00 pm 5.2- 363.5
2024-07-16 09:50 pm 5.2- 360.6
2024-07-16 09:40 pm 5.3- 363.2
2024-07-16 09:30 pm 5.7- 357.9
2024-07-16 09:20 pm 7.1- 358.5
2024-07-16 09:10 pm 9.2- 365.2
2024-07-16 09:00 pm 13.4- 364.4
2024-07-16 08:50 pm 21.0- 365.8
2024-07-16 08:40 pm 28.3- 361.9
2024-07-16 08:30 pm 42.5- 359.3
2024-07-16 08:20 pm 51.5- 361.9
2024-07-16 08:10 pm 63.1- 358.0
2024-07-16 08:00 pm 81.5- 355.8
2024-07-16 07:50 pm 81.0- 367.6
2024-07-16 07:40 pm 94.7- 364.7
2024-07-16 07:30 pm 119.5- 362.2
2024-07-16 07:20 pm 129.2- 366.1
2024-07-16 07:10 pm 129.6- 368.7
2024-07-16 07:00 pm 160.3- 368.8
2024-07-16 06:50 pm 160.6- 369.8